COSMOS 2081 (GLONASS)

Satellite information

Favourite Embed

Satellite Type and Status

PAYLOADIN ORBIT

Key statistics

Satellite COSMOS 2081 (GLONASS) at a glance.

Uptime

12896

Days in orbit

Revolutions

≈ 2.1

Per day

Orbit

MEO

Medium Earth Orbit

Inclination

64.9

Latest

Satellite identification and parameters

Extended collection of information and parameters for COSMOS 2081 (GLONASS).

Object identification

Identified? True

Debris? False

Object name: COSMOS 2081 (GLONASS)

International designator: 1990-045C

Object number (NORAD): 20621

Object ID (CCSDS): 20621

Country: COMMONWEALTH OF INDEPENDENT STATES (CIS)

Current information (Y/N): Y

RCS size: LARGE

Orbital parameters

Period: 675.724 minutes

Inclination: 64.9058 deg

SMA: 25507.809 km

Apoapsis: 19244.725 km

Periapsis: 19014.623 km

RAAN: 318.4228 deg

Eccentricy: 0.00451042

Argument of periapsis: 215.2685 deg

Mean anomaly: 145.7614 deg

Mean motion: 2.13104702 rev/day

Mean motion (dot): -0.00000022 rev/day2

B* drag term: 0.0 1/REarth

Two-line elements (TLE)

Creation date: Sept. 8, 2025, 3:16 a.m.

Reference frame: TEME

Reference center: EARTH

Epoch: Sept. 7, 2025, 9:08 p.m. UTC

TLE line 0: 0 COSMOS 2081 (GLONASS)

TLE line 1: 1 20621U 90045C 25250.88085061 -.00000022 00000-0 00000-0 0 9994

TLE line 2: 2 20621 64.9058 318.4228 0045104 215.2685 145.7614 2.13104702274670

Live tracking on map

Real-time ground track for satellite COSMOS 2081 (GLONASS).

In-orbit conjunctions

There are no conjunctions computed for COSMOS 2081 (GLONASS), at the moment. Check back to stay up to date, as we update our databases every day.

Go to all conjunctions

Associated space launch

GLONASS navigation satellites

COSMOS 2081 (GLONASS) was lifted into orbit during the mission ‘Proton | Uragan 36 to 38’, on board a Proton space rocket.

The launch took place on May 19, 1990, 8:32 a.m. from 200/40.

For more information about the launch, click the button.

Launch to space Proton | Uragan 36 to 38
Proton | Uragan 36 to 38

Agency: N/A

Status: Launch Successful

Launch date: May 19, 1990, 8:32 a.m. UTC

Rocket: Proton

Launch pad: 200/40

Location: Baikonur Cosmodrome, Republic of Kazakhstan

...

Latest news about this satellite

There are no fresh news available about this satellite. Check back as we update our databases every day.


Newsletter sign-up

Weekly statistics, charts and insights to help you stay on top of the space industry.